Home > Weather > Racine > Past weeks

Flag for USA Weather for the Past 2 Weeks in Racine, Wisconsin, USA

Now
45 °F

Light rain. Overcast.


Feels Like: 38 °F
Forecast: 40 / 47 °F
Wind: 15 mph from Northeast

Location: Batten International Airport

Current Time: Apr 30, 2016 at 3:59:41 PM

Latest Report: Apr 30, 2016 at 2:53 PM


Visibility: 7 mi

Pressure: 30.03 "Hg

Humidity: 76%

Dew Point: 38 °F

Location of RacineLocation

Historic Weather in Racine — Graph

°F

Racine Temperature Yesterday

Maximum temperature yesterday: 47 °F (at 12:53 PM)
Minimum temperature yesterday: 40 °F (at 3:53 AM)
Average temperature yesterday: 43 °F

High & Low Weather Summary for the Past Weeks

 TemperatureHumidityPressure
High76 °F (Apr 25, 11:53 AM)97% (Apr 21, 1:53 AM)30.44 "Hg (Apr 21, 1:53 AM)
Low37 °F (Apr 24, 5:53 AM)29% (Apr 18, 2:53 PM)29.56 "Hg (Apr 25, 5:53 PM)
Average49 °F72%30.08 "Hg
* Reported Apr 15 2:53 PM — Apr 30 2:53 PM, Racine, Weather by CustomWeather, © 2016

Note: Actual official high and low records may vary slightly from our data, if they occured in-between our weather recording intervals... More about our weather records

Advertising

Racine Weather History for the Previous 24 Hours

Scroll right to see more
 ConditionsComfort  
Time TempWeatherWind HumidityBarometerVisibility
2:53 PM
Sat, Apr 30
45 °FLight rain. Overcast.15 mph76%30.03 "Hg7 mi
1:53 PM44 °FLight rain. Overcast.14 mph79%30.06 "Hg5 mi
12:53 PM45 °FLight rain. Overcast.15 mph80%30.06 "Hg6 mi
11:53 AM45 °FLight rain. Overcast.15 mph76%30.09 "Hg9 mi
10:53 AM45 °FOvercast.12 mph76%30.11 "Hg10 mi
9:53 AM45 °FOvercast.13 mph76%30.11 "Hg10 mi
8:53 AM45 °FOvercast.13 mph80%30.10 "Hg10 mi
7:53 AM44 °FOvercast.12 mph79%30.12 "Hg10 mi
6:53 AM44 °FSunny.12 mph79%30.12 "Hg10 mi
5:53 AM44 °FClear.12 mph79%30.11 "Hg10 mi
4:53 AM44 °FClear.9 mph76%30.12 "Hg10 mi
3:53 AM45 °FClear.10 mph74%30.12 "Hg10 mi
2:53 AM44 °FClear.9 mph73%30.13 "Hg10 mi
1:53 AM45 °FOvercast.9 mph65%30.14 "Hg10 mi
12:53 AM44 °FOvercast.8 mph58%30.15 "Hg10 mi
11:53 PM
Fri, Apr 29
43 °FOvercast.7 mph71%30.15 "Hg10 mi
10:53 PM43 °FOvercast.6 mph71%30.16 "Hg10 mi
9:53 PM42 °FOvercast.6 mph73%30.18 "Hg10 mi
8:53 PM41 °FOvercast.5 mph76%30.18 "Hg10 mi
7:53 PM40 °FSunny.6 mph80%30.17 "Hg10 mi
6:53 PM43 °FPassing clouds.12 mph74%30.15 "Hg10 mi
5:53 PM44 °FOvercast.9 mph71%30.17 "Hg10 mi
4:53 PM44 °FOvercast.9 mph73%30.16 "Hg10 mi
3:53 PM45 °FOvercast.9 mph71%30.16 "Hg10 mi
Weather by CustomWeather, © 2016

See weather overviewHow to use our weather pages